GW6200 Weather Reports


time (UTC)temp
F
wind
direction
speed
knots
gust
knots
rain 1hr
in
rain 24hr
in
rain mn
in
humidity
%
barometer
mb
20260506134032 56 165 2.6 8.7 0.00 0.00 0.00 49 1014.7
20260506133035 56 175 2.6 7.8 0.00 0.00 0.00 55 1014.7
20260506132033 57 150 1.7 4.3 0.00 0.00 0.00 51 1014.7
20260506131032 57 181 1.7 6.1 0.00 0.00 0.00 50 1014.9
20260506130033 56 119 3.5 8.7 0.00 0.00 0.00 57 1014.8
20260506124033 57 130 1.7 6.1 0.00 0.00 0.00 49 1014.9
20260506123034 57 170 3.5 8.7 0.00 0.00 0.00 49 1014.9
20260506122032 56 165 1.7 6.1 0.00 0.00 0.00 50 1014.9
20260506121032 57 111 2.6 7.8 0.00 0.00 0.00 52 1015.1
20260506120032 56 91 1.7 4.3 0.00 0.00 0.00 54 1015.2
20260506115033 56 219 1.7 5.2 0.00 0.00 0.00 51 1015.1
20260506114032 55 123 1.7 6.1 0.00 0.00 0.00 55 1015.3
20260506113036 56 5 3.5 8.7 0.00 0.00 0.00 51 1015.3
20260506111034 56 73 3.5 9.6 0.00 0.00 0.00 51 1015.4
20260506110032 56 121 2.6 9.6 0.00 0.00 0.00 51 1015.5
20260506104032 55 107 1.7 5.2 0.00 0.00 0.00 58 1015.7
20260506103031 55 127 2.6 6.1 0.00 0.00 0.00 53 1015.9
20260506102031 53 151 2.6 7.0 0.00 0.00 0.00 60 1015.8
20260506101036 51 150 2.6 7.0 0.00 0.00 0.00 59 1015.9
20260506095032 50 130 2.6 7.0 0.00 0.00 0.00 60 1016.2
20260506094042 50 142 3.5 8.7 0.00 0.00 0.00 60 1016.2
20260506093031 50 119 1.7 6.1 0.00 0.00 0.00 60 1016.3
20260506092031 49 355 1.7 5.2 0.00 0.00 0.00 63 1016.3
20260506091040 48 140 1.7 7.0 0.00 0.00 0.00 63 1016.3
20260506090031 48 86 1.7 6.1 0.00 0.00 0.00 64 1016.4
20260506085033 47 18 2.6 7.8 0.00 0.00 0.00 64 1016.5
20260506084031 47 173 0.9 3.5 0.00 0.00 0.00 68 1016.5
20260506083032 47 70 0.9 2.6 0.00 0.00 0.00 71 1016.6
20260506081033 46 77 0.9 2.6 0.00 0.00 0.00 71 1016.7
20260506073034 44 65 0.9 2.6 0.00 0.00 0.00 74 1016.6
20260506072037 44 49 0.9 3.5 0.00 0.00 0.00 74 1016.7
20260506071033 44 5 0.9 3.5 0.00 0.00 0.00 76 1016.7
20260506062033 42 74 0.9 2.6 0.00 0.00 0.00 77 1016.4
20260506061031 42 64 0.9 3.5 0.00 0.00 0.00 78 1016.4
20260506051031 41 9 0.0 1.7 0.00 0.00 0.00 85 1016.4
20260506045031 39 16 0.0 1.7 0.00 0.00 0.00 87 1016.4
20260506043030 39 16 0.0 1.7 0.00 0.00 0.00 88 1016.3
20260506042034 39 15 0.0 1.7 0.00 0.00 0.00 88 1016.2
20260506041031 38 10 0.0 2.6 0.00 0.00 0.00 88 1016.3
20260506040035 38 9 0.0 0.9 0.00 0.00 0.00 88 1016.3
20260506035030 38 9 0.0 1.7 0.00 0.00 0.00 88 1016.4
20260506033031 37 9 0.0 1.7 0.00 0.00 0.00 88 1016.4
20260506032032 37 9 0.0 0.0 0.00 0.00 0.00 87 1016.4
20260506031035 37 9 0.0 0.9 0.00 0.00 0.00 87 1016.5
20260506030036 37 9 0.0 0.9 0.00 0.00 0.00 86 1016.5
20260506025038 37 9 0.0 0.9 0.00 0.00 0.00 86 1016.6
20260506023030 38 9 0.0 0.0 0.00 0.00 0.00 85 1016.6
20260506022029 38 9 0.0 0.9 0.00 0.00 0.00 85 1016.7
20260506020030 38 9 0.0 1.7 0.00 0.00 0.00 85 1016.6
20260506015035 38 51 0.0 1.7 0.00 0.00 0.00 86 1016.6
20260506012029 37 26 0.0 1.7 0.00 0.00 0.00 85 1016.7
20260506011029 38 82 0.0 0.9 0.00 0.00 0.00 84 1016.8
20260506010032 38 82 0.0 0.9 0.00 0.00 0.00 83 1016.7
20260506005032 38 82 0.0 0.9 0.00 0.00 0.00 82 1016.7
20260506004038 39 82 0.0 0.9 0.00 0.00 0.00 81 1016.7
20260506003026 39 82 0.0 1.7 0.00 0.00 0.00 81 1016.7
20260506002028 39 82 0.0 0.9 0.00 0.00 0.00 80 1016.8
20260506001032 40 82 0.0 0.9 0.00 0.00 0.00 79 1016.8
20260505235034 41 82 0.0 0.9 0.00 0.00 0.00 78 1016.8
20260505234028 41 82 0.0 1.7 0.00 0.00 0.00 78 1016.9
20260505231035 43 82 0.0 2.6 0.00 0.00 0.00 76 1016.9
20260505230026 43 107 0.9 2.6 0.00 0.00 0.00 76 1016.9
20260505225030 43 145 0.9 2.6 0.00 0.00 0.00 77 1017.0
20260505223020 43 111 0.9 3.5 0.00 0.00 0.00 77 1016.9
20260505222024 43 57 0.9 3.5 0.00 0.00 0.00 77 1017.0
20260505221027 43 86 0.9 6.1 0.00 0.00 0.00 77 1017.0
20260505220023 43 124 1.7 6.1 0.00 0.00 0.00 77 1016.9
20260505215024 43 73 0.9 1.7 0.00 0.00 0.00 78 1016.9
20260505214012 43 86 0.9 3.5 0.00 0.00 0.00 78 1016.9
20260505213011 44 84 0.9 2.6 0.00 0.00 0.00 77 1016.9
20260505212012 44 76 0.9 2.6 0.00 0.00 0.00 76 1016.8
20260505211011 44 63 0.9 2.6 0.00 0.00 0.00 75 1016.8
20260505210013 45 68 0.9 3.5 0.00 0.00 0.00 74 1016.8
20260505205012 45 107 0.9 3.5 0.00 0.00 0.00 73 1016.8
20260505204015 45 88 0.9 2.6 0.00 0.00 0.00 73 1016.7
20260505202013 46 106 0.9 2.6 0.00 0.00 0.00 72 1016.6
20260505201011 47 83 0.9 5.2 0.00 0.00 0.00 71 1016.6
20260505200012 47 31 1.7 3.5 0.00 0.00 0.00 71 1016.6
20260505195024 47 63 1.7 3.5 0.00 0.00 0.00 72 1016.5
20260505194026 48 96 1.7 4.3 0.00 0.00 0.00 72 1016.3
20260505192005 48 87 0.9 2.6 0.00 0.00 0.00 73 1016.1
20260505191006 49 71 0.9 3.5 0.00 0.00 0.00 72 1016.1
20260505190007 49 172 0.9 3.5 0.00 0.00 0.00 72 1015.9
20260505185006 49 78 0.9 4.3 0.00 0.00 0.00 71 1015.9
20260505184007 49 325 0.9 3.5 0.00 0.00 0.00 70 1015.9
20260505182006 50 108 1.7 4.3 0.00 0.00 0.00 70 1015.8
20260505181005 50 5 0.9 5.2 0.00 0.00 0.00 71 1015.8
20260505180002 50 126 1.7 5.2 0.00 0.00 0.00 70 1015.7
20260505175003 50 70 1.7 7.8 0.00 0.00 0.00 68 1015.7
20260505174004 50 132 1.7 7.8 0.00 0.00 0.00 69 1015.8
20260505173004 51 97 1.7 7.0 0.00 0.00 0.00 69 1015.7
20260505172003 51 82 1.7 5.2 0.00 0.00 0.00 71 1015.7
20260505171004 51 189 1.7 5.2 0.00 0.00 0.00 68 1015.7
20260505170006 51 74 1.7 7.0 0.00 0.00 0.00 69 1015.7
20260505165004 51 81 2.6 7.0 0.00 0.00 0.00 69 1015.6
20260505164003 52 173 1.7 7.0 0.00 0.00 0.00 69 1015.4
20260505162002 52 143 1.7 6.1 0.00 0.00 0.00 68 1015.3
20260505161002 53 93 2.6 8.7 0.00 0.00 0.00 68 1015.3
20260505153003 52 133 2.6 8.7 0.00 0.00 0.00 72 1015.2
20260505151002 52 217 1.7 7.0 0.00 0.00 0.00 73 1015.1